BEL8HA LPMA-EBBR

Flight info

Callsign BEL8HA
Flight time N/A
Altitude 36000
Route DEGUN DCT ROLAR DCT MARUM DCT ASMAR DCT DEMOS DCT LOTEE/N0457F380 DCT AZFIC DCT ERIGA/N0448F340 DCT GODIX DCT PODEM UN873 BAZOS DCT BELDI DCT VEKIN/N0415F240 Z173 ARVOL
Aircraft A320/M-SDE3FGHIRWY/LB1

Departure

Time 2026-05-04 14:16
Airport Cristiano Ronaldo International Airport (LPMA)

Arrival

Time N/A
Airport Brussels Airport (EBBR)
Time Latitude Longitude Altitude Speed Heading
2026-05-04 13:53 32.69411 -16.77592 178 ft 0 kts 138°
2026-05-04 14:05 32.69412 -16.77593 176 ft 2 kts 138°
2026-05-04 14:05 32.69432 -16.77613 176 ft 4 kts 135°
2026-05-04 14:05 32.69449 -16.77637 176 ft 4 kts 113°
2026-05-04 14:06 32.69451 -16.77659 176 ft 2 kts 47°
2026-05-04 14:06 32.69450 -16.77660 176 ft 0 kts 46°
2026-05-04 14:10 32.69453 -16.77656 176 ft 5 kts 46°
2026-05-04 14:10 32.69525 -16.77562 176 ft 20 kts 49°
2026-05-04 14:10 32.69625 -16.77441 176 ft 21 kts 46°
2026-05-04 14:10 32.69729 -16.77311 176 ft 22 kts 46°
2026-05-04 14:11 32.69800 -16.77223 176 ft 0 kts 45°
2026-05-04 14:12 32.70013 -16.77170 176 ft 25 kts 15°
2026-05-04 14:13 32.70138 -16.77037 176 ft 25 kts 44°
2026-05-04 14:13 32.70293 -16.76853 176 ft 35 kts 45°
2026-05-04 14:13 32.70469 -16.76651 176 ft 35 kts 44°
2026-05-04 14:13 32.70629 -16.76497 176 ft 19 kts 12°
2026-05-04 14:14 32.70678 -16.76433 176 ft 6 kts 105°
2026-05-04 14:14 32.70632 -16.76453 176 ft 6 kts 243°
2026-05-04 14:14 32.70619 -16.76473 176 ft 0 kts 227°
2026-05-04 14:15 32.70560 -16.76552 176 ft 45 kts 228°
2026-05-04 14:16 32.69348 -16.77963 354 ft 171 kts 223°
2026-05-04 14:16 32.68475 -16.78878 1273 ft 169 kts 207°
2026-05-04 14:17 32.66088 -16.78787 2403 ft 195 kts 169°
2026-05-04 14:17 32.64680 -16.78502 2676 ft 216 kts 173°
2026-05-04 14:17 32.61377 -16.77941 3527 ft 257 kts 167°
2026-05-04 14:18 32.59810 -16.76916 4292 ft 266 kts 133°
2026-05-04 14:18 32.59204 -16.72714 5882 ft 279 kts 71°
2026-05-04 14:19 32.60857 -16.68489 7507 ft 287 kts 64°
2026-05-04 14:19 32.61739 -16.66343 8260 ft 292 kts 64°
2026-05-04 14:19 32.62631 -16.64167 9024 ft 296 kts 65°
2026-05-04 14:19 32.63371 -16.61871 9786 ft 301 kts 72°
2026-05-04 14:20 32.63957 -16.59460 10355 ft 312 kts 74°
2026-05-04 14:20 32.64643 -16.56916 10559 ft 335 kts 68°
2026-05-04 14:20 32.65690 -16.54347 10723 ft 357 kts 58°
2026-05-04 14:21 32.69138 -16.49678 10972 ft 397 kts 41°
2026-05-04 14:21 32.71196 -16.47388 11251 ft 410 kts 42°
2026-05-04 14:21 32.73281 -16.45036 11786 ft 416 kts 42°
2026-05-04 14:21 32.75379 -16.42640 12368 ft 420 kts 43°
2026-05-04 14:22 32.77492 -16.40216 12934 ft 424 kts 43°
2026-05-04 14:22 32.79621 -16.37770 13500 ft 429 kts 42°
2026-05-04 14:22 32.81776 -16.35296 14041 ft 433 kts 42°
2026-05-04 14:22 32.83953 -16.32797 14536 ft 436 kts 42°
2026-05-04 14:23 32.88350 -16.27754 15553 ft 442 kts 43°
2026-05-04 14:23 32.90542 -16.25244 16031 ft 444 kts 43°
2026-05-04 14:23 32.92773 -16.22685 16493 ft 446 kts 43°
2026-05-04 14:24 32.95011 -16.20113 16937 ft 449 kts 43°
2026-05-04 14:24 32.97299 -16.17482 17367 ft 452 kts 43°
2026-05-04 14:24 32.99536 -16.14910 17776 ft 455 kts 43°
2026-05-04 14:24 33.01820 -16.12284 18169 ft 458 kts 43°
2026-05-04 14:25 33.04113 -16.09644 18554 ft 460 kts 43°
2026-05-04 14:25 33.08744 -16.04297 19198 ft 466 kts 43°
2026-05-04 14:25 33.11073 -16.01602 19498 ft 469 kts 43°
2026-05-04 14:26 33.13418 -15.98887 19791 ft 471 kts 42°
2026-05-04 14:26 33.15780 -15.96155 20074 ft 474 kts 42°
2026-05-04 14:26 33.18151 -15.93413 20373 ft 476 kts 42°
2026-05-04 14:26 33.20537 -15.90653 20652 ft 479 kts 42°
2026-05-04 14:27 33.22934 -15.87878 20912 ft 481 kts 42°
2026-05-04 14:27 33.25344 -15.85083 21171 ft 484 kts 42°
2026-05-04 14:27 33.27761 -15.82274 21430 ft 486 kts 42°
2026-05-04 14:27 33.30184 -15.79454 21675 ft 488 kts 42°